Weather History for Mount Ida, AR

Change the Weather History Date:

Sunday, December 9, 2012

  Actual Average (KHOT) Record (KHOT)
Temperature  
Mean Temperature 60 °F -  
Max Temperature 73 °F 54 °F 75 °F (2007)
Min Temperature 48 °F 34 °F 16 °F (2005)
Degree Days  
Heating Degree Days 4    
Growing Degree Days 10 (Base 50)    
Moisture  
Dew Point 59 °F    
Average Humidity 89    
Maximum Humidity 100    
Minimum Humidity 66    
Precipitation  
Precipitation 0.61 in - - ()
Sea Level Pressure  
Sea Level Pressure 29.79 in    
Wind  
Wind Speed 3 mph (NW)    
Max Wind Speed 10 mph    
Max Gust Speed 17 mph    
Visibility 6 miles    
Events Rain    
Averages and records for this station are not official NWS values.
T = Trace of Precipitation, MM = Missing Value Source: NWS Daily Summary

Daily Weather History Graph

Daily Weather History Graph

Search for Another Location

Airport:

Trip Planner

Search our weather history database for the weather conditions in past years. The results will help you decide how hot, cold, wet, or windy it might be!

Date:

Astronomy

Dec. 09, 2012 Rise Set
Actual Time 7:09 AM CST 5:03 PM CST
Civil Twilight 6:42 AM CST 5:31 PM CST
Nautical Twilight 6:10 AM CST 6:03 PM CST
Astronomical Twilight 5:40 AM CST 6:33 PM CST
Moon 2:51 AM CST (12/9) 2:04 PM CST (12/9)
Length of Visible Light 10h 49m
Length of Day
9h 54m
Waning Crescent, 18% of the Moon is Illuminated
Dec 9
Waning Crescent
Dec 13
New
Dec 19
First Quarter
Dec 28
Full
Jan 4
Last Quarter

Hourly Weather History & Observations

Time (CST) Temp. Dew Point Humidity Pressure Visibility Wind Dir Wind Speed Gust Speed Precip Events Conditions
12:03 AM 60.8 °F 59.0 °F 94% 29.80 in 10.0 mi Calm Calm - 0.00 in Rain Light Rain
12:37 AM 60.8 °F 59.0 °F 94% 29.79 in 7.0 mi Variable 3.5 mph - 0.03 in Rain Light Rain
12:53 AM 61.0 °F 60.1 °F 97% 29.78 in 7.0 mi Calm Calm - 0.04 in Rain Light Rain
1:07 AM 60.8 °F 60.8 °F 100% 29.79 in 2.0 mi Variable 3.5 mph - 0.04 in Rain Heavy Rain
1:23 AM 60.8 °F 60.8 °F 100% 29.79 in 5.0 mi Calm Calm - 0.10 in Rain Light Rain
1:53 AM 60.1 °F 59.0 °F 96% 29.76 in 3.0 mi Calm Calm - 0.11 in   Mostly Cloudy
2:13 AM 60.8 °F 60.8 °F 100% 29.79 in 7.0 mi Calm Calm - N/A   Mostly Cloudy
2:53 AM 60.1 °F 60.1 °F 100% 29.77 in 10.0 mi Calm Calm - N/A   Overcast
3:53 AM 61.0 °F 60.1 °F 97% 29.77 in 8.0 mi Calm Calm - 0.01 in Rain Light Rain
4:53 AM 61.0 °F 60.1 °F 97% 29.76 in 3.0 mi Calm Calm - 0.00 in Rain Light Rain
5:08 AM 60.8 °F 60.8 °F 100% 29.78 in 2.0 mi Calm Calm - 0.01 in Rain Light Rain
5:21 AM 60.8 °F 60.8 °F 100% 29.78 in 4.0 mi Calm Calm - 0.01 in   Overcast
5:34 AM 60.8 °F 60.8 °F 100% 29.77 in 2.5 mi South 5.8 mph - 0.02 in Rain Rain
5:42 AM 62.6 °F 62.6 °F 100% 29.77 in 1.8 mi South 6.9 mph - 0.06 in Rain Heavy Rain
5:55 AM 64.4 °F 64.4 °F 100% 29.77 in 3.0 mi Calm Calm - 0.00 in Rain Light Rain
6:12 AM 62.6 °F 62.6 °F 100% 29.78 in 2.5 mi Calm Calm - 0.04 in Rain Light Rain
6:20 AM 62.6 °F 62.6 °F 100% 29.78 in 4.0 mi Calm Calm - 0.04 in Rain Rain
6:25 AM 64.4 °F 64.4 °F 100% 29.78 in 1.8 mi Calm Calm - 0.06 in Rain Heavy Rain
6:37 AM 64.4 °F 64.4 °F 100% 29.79 in 3.0 mi Variable 5.8 mph - 0.14 in Rain Light Rain
6:53 AM 66.0 °F 64.0 °F 93% 29.77 in 6.0 mi Variable 3.5 mph - 0.14 in Rain Light Rain
7:18 AM 66.2 °F 64.4 °F 94% 29.79 in 4.0 mi Variable 4.6 mph - 0.01 in Rain Light Rain
7:43 AM 66.2 °F 64.4 °F 94% 29.79 in 4.0 mi Calm Calm - 0.01 in Rain Light Rain
7:53 AM 66.0 °F 64.0 °F 93% 29.77 in 4.0 mi Variable 3.5 mph - 0.02 in Rain Light Rain
8:15 AM 66.2 °F 64.4 °F 94% 29.79 in 1.8 mi Variable 4.6 mph - 0.02 in Rain Rain
8:23 AM 66.2 °F 64.4 °F 94% 29.79 in 3.0 mi WSW 4.6 mph - 0.03 in Rain Light Rain
8:44 AM 66.2 °F 64.4 °F 94% 29.79 in 5.0 mi Variable 3.5 mph - 0.03 in   Overcast
8:53 AM 66.9 °F 64.0 °F 90% 29.77 in 5.0 mi Calm Calm - 0.03 in   Overcast
9:53 AM 68.0 °F 64.0 °F 87% 29.78 in 6.0 mi Variable 6.9 mph - 0.00 in   Mostly Cloudy
10:02 AM 69.8 °F 64.4 °F 83% 29.79 in 7.0 mi Variable 5.8 mph - N/A   Mostly Cloudy
10:53 AM 69.1 °F 64.0 °F 84% 29.77 in 7.0 mi Calm Calm - N/A   Mostly Cloudy
11:13 AM 69.8 °F 64.4 °F 83% 29.78 in 7.0 mi Variable 6.9 mph - N/A   Mostly Cloudy
11:22 AM 69.8 °F 64.4 °F 83% 29.77 in 8.0 mi Variable 5.8 mph - N/A   Mostly Cloudy
11:53 AM 70.0 °F 63.0 °F 78% 29.74 in 8.0 mi Variable 5.8 mph - N/A   Partly Cloudy
12:53 PM 72.0 °F 62.1 °F 71% 29.71 in 9.0 mi SSW 9.2 mph - N/A   Scattered Clouds
1:53 PM 73.0 °F 61.0 °F 66% 29.71 in 10.0 mi Variable 4.6 mph - N/A   Partly Cloudy
2:53 PM 72.0 °F 61.0 °F 68% 29.71 in 9.0 mi Variable 6.9 mph - N/A   Scattered Clouds
3:53 PM 70.0 °F 60.1 °F 71% 29.73 in 10.0 mi NNW 9.2 mph - N/A   Partly Cloudy
4:10 PM 62.6 °F 59.0 °F 88% 29.77 in 0.8 mi NNW 9.2 mph - 0.08 in Rain Heavy Rain
4:22 PM 60.8 °F 57.2 °F 88% 29.76 in 2.0 mi NNW 10.4 mph 17.3 mph 0.26 in Rain Light Rain
4:30 PM 60.8 °F 57.2 °F 88% 29.77 in 6.0 mi NNW 9.2 mph 17.3 mph 0.26 in   Mostly Cloudy
4:53 PM 60.1 °F 55.0 °F 83% 29.77 in 5.0 mi NNW 6.9 mph - 0.26 in   Haze
5:03 PM 60.8 °F 53.6 °F 77% 29.79 in 5.0 mi NW 9.2 mph 16.1 mph N/A   Haze
5:53 PM 57.0 °F 52.0 °F 83% 29.80 in 7.0 mi NW 6.9 mph - N/A   Scattered Clouds
6:04 PM 57.2 °F 51.8 °F 82% 29.81 in 7.0 mi NW 4.6 mph - N/A   Mostly Cloudy
6:53 PM 55.0 °F 48.0 °F 77% 29.83 in 9.0 mi NW 9.2 mph - N/A   Overcast
7:53 PM 53.1 °F 46.0 °F 77% 29.83 in 10.0 mi NW 6.9 mph - N/A   Overcast
8:46 PM 50.0 °F 44.6 °F 82% 29.86 in 9.0 mi NW 6.9 mph - N/A   Mostly Cloudy
8:53 PM 51.1 °F 44.1 °F 77% 29.86 in 9.0 mi Variable 6.9 mph - N/A   Mostly Cloudy
9:17 PM 50.0 °F 44.6 °F 82% 29.86 in 9.0 mi NW 8.1 mph - N/A   Overcast
9:53 PM 48.9 °F 43.0 °F 80% 29.86 in 10.0 mi Variable 5.8 mph - N/A   Mostly Cloudy
10:53 PM 48.9 °F 41.0 °F 74% 29.87 in 10.0 mi Variable 5.8 mph 16.1 mph N/A   Overcast
11:53 PM 48.9 °F 41.0 °F 74% 29.87 in 10.0 mi NNW 9.2 mph - N/A   Overcast